This is the latest recevied weather packets stored in our database for station/object K3JSE-4. If no packets are shown the sender has not sent any weather packets the latest 10 day(s).
| Time | Temp. | Humidity | Pressure | Rain* | Wind** | Luminosity | Snow |
|---|---|---|---|---|---|---|---|
| 1777596643 | 10.56° C | 69% | 1011.8 hPa | 0 mm | - | - | - |
| 1777596343 | 10.56° C | 69% | 1011.7 hPa | 0 mm | - | - | - |
| 1777596043 | 10.56° C | 69% | 1011.6 hPa | 0 mm | - | - | - |
| 1777595743 | 10.56° C | 68% | 1011.6 hPa | 0 mm | - | - | - |
| 1777595443 | 10.56° C | 68% | 1011.6 hPa | 0 mm | - | - | - |
| 1777595143 | 10.56° C | 69% | 1011.4 hPa | 0 mm | - | - | - |
| 1777594843 | 10.56° C | 68% | 1011.2 hPa | 0 mm | - | - | - |
| 1777594543 | 10.56° C | 68% | 1011.2 hPa | 0 mm | - | - | - |
| 1777594243 | 11.11° C | 68% | 1011.2 hPa | 0 mm | - | - | - |
| 1777593943 | 11.11° C | 67% | 1011.1 hPa | 0 mm | - | - | - |
| 1777593643 | 11.11° C | 67% | 1011 hPa | 0 mm | - | - | - |
| 1777593343 | 11.11° C | 66% | 1010.9 hPa | 0 mm | - | - | - |
| 1777593043 | 11.67° C | 66% | 1010.8 hPa | 0 mm | - | - | - |
| 1777592743 | 11.67° C | 66% | 1010.7 hPa | 0 mm | - | - | - |
| 1777592443 | 11.67° C | 66% | 1010.7 hPa | 0 mm | - | - | - |
| 1777592143 | 11.67° C | 65% | 1010.6 hPa | 0 mm | - | - | - |
| 1777591843 | 12.22° C | 64% | 1010.5 hPa | 0 mm | - | - | - |
| 1777591543 | 12.22° C | 63% | 1010.4 hPa | 0 mm | - | - | - |
| 1777591243 | 12.78° C | 65% | 1010.4 hPa | 0 mm | - | - | - |
| 1777590943 | 12.78° C | 65% | 1010.2 hPa | 0 mm | - | - | - |
| 1777590643 | 12.78° C | 66% | 1010.4 hPa | 0 mm | - | - | - |
| 1777590343 | 13.33° C | 67% | 1010.3 hPa | 0 mm | - | - | - |
| 1777590043 | 13.33° C | 66% | 1010.1 hPa | 0 mm | - | - | - |
| 1777589743 | 12.78° C | 65% | 1010.1 hPa | 0 mm | - | - | - |
| 1777589443 | 13.33° C | 65% | 1010.1 hPa | 0 mm | - | - | - |
* Rain latest hour (hover to see other rain measurements)
** Current wind speed in m/s (hover to see current wind gust speed)